Weather History for KAIA - January, 2013

Change the Weather History Date:

Sunday, January 13, 2013

  Actual Average Record
Temperature  
Mean Temperature 2 °F 24 °F  
Max Temperature 15 °F 38 °F 67 °F (1987)
Min Temperature -12 °F 10 °F -31 °F (1905)
Degree Days  
Heating Degree Days 63 41  
Month to date heating degree days 568 536  
Since 1 July heating degree days 3372 3618  
Cooling Degree Days 0 0  
Month to date cooling degree days 0 0  
Year to date cooling degree days 0 0  
Moisture  
Dew Point -3 °F    
Average Humidity 78    
Maximum Humidity 95    
Minimum Humidity 61    
Precipitation  
Precipitation T in 0.01 in 0.10 in (1907)
Month to date precipitation T 0.07  
Year to date precipitation T 0.07  
Sea Level Pressure  
Sea Level Pressure 30.25 in    
Wind  
Wind Speed 7 mph (WNW)    
Max Wind Speed 13 mph    
Max Gust Speed 15 mph    
Visibility 9 miles    
Events Snow    
T = Trace of Precipitation, MM = Missing Value Source: NWS Daily Summary

Daily Weather History Graph

Daily Weather History Graph

Search for Another Location

Airport or City:

Trip Planner

Search our weather history database for the weather conditions in past years. The results will help you decide how hot, cold, wet, or windy it might be!

Date:

Astronomy

Jan. 13, 2013 Rise Set
Actual Time 7:17 AM MST 4:42 PM MST
Civil Twilight 6:46 AM MST 5:13 PM MST
Nautical Twilight 6:12 AM MST 5:48 PM MST
Astronomical Twilight 5:38 AM MST 6:21 PM MST
Moon 8:14 AM MST (1/13) 7:27 PM MST (1/13)
Length of Visible Light 10h 27m
Length of Day
9h 25m
Waxing Crescent, 5% of the Moon is Illuminated
Jan 13
Waxing Crescent
Jan 18
First Quarter
Jan 26
Full
Feb 3
Last Quarter
Feb 10
New

Hourly Weather History & Observations

Time (MST) Temp. Windchill Dew Point Humidity Pressure Visibility Wind Dir Wind Speed Gust Speed Precip Events Conditions
12:53 AM -2.9 °F -11.2 °F -8.0 °F 79% 30.27 in 4.0 mi WSW 3.5 mph - 0.00 in Snow Light Snow
12:58 AM -2.2 °F - -7.6 °F 78% 30.04 in 2.5 mi Calm Calm - 0.00 in Snow Light Snow
1:11 AM -2.2 °F - -7.6 °F 78% 30.04 in 4.0 mi Calm Calm - 0.00 in Snow Light Snow
1:27 AM -2.2 °F -10.4 °F -5.8 °F 85% 30.05 in 4.0 mi West 3.5 mph - 0.00 in Snow Light Snow
1:53 AM -0.9 °F -11.0 °F -6.0 °F 79% 30.27 in 4.0 mi West 4.6 mph - 0.00 in Snow Light Snow
2:28 AM -0.4 °F -12.0 °F -5.8 °F 78% 30.04 in 9.0 mi WNW 5.8 mph - 0.00 in   Mostly Cloudy
2:53 AM -0.0 °F -9.9 °F -4.0 °F 83% 30.26 in 7.0 mi West 4.6 mph - 0.00 in Snow Light Snow
3:53 AM 1.0 °F -11.7 °F -2.9 °F 83% 30.24 in 9.0 mi West 6.9 mph - 0.00 in   Overcast
4:53 AM -0.0 °F -14.2 °F -4.0 °F 83% 30.27 in 10.0 mi WNW 8.1 mph - N/A   Overcast
5:53 AM 1.9 °F -9.2 °F -0.9 °F 88% 30.28 in 9.0 mi WNW 5.8 mph - N/A   Scattered Clouds
6:53 AM -0.0 °F -9.9 °F -4.0 °F 83% 30.32 in 10.0 mi West 4.6 mph - N/A   Partly Cloudy
7:53 AM -4.0 °F -17.8 °F -8.0 °F 83% 30.38 in 10.0 mi West 6.9 mph - N/A   Clear
8:53 AM -0.0 °F -14.2 °F -4.0 °F 83% 30.40 in 10.0 mi West 8.1 mph - N/A   Clear
9:53 AM 3.9 °F -9.4 °F -0.9 °F 80% 30.37 in 10.0 mi West 8.1 mph - N/A   Clear
10:53 AM 9.0 °F -0.9 °F 3.0 °F 77% 30.33 in 10.0 mi West 5.8 mph - N/A   Clear
11:53 AM 14.0 °F 1.2 °F 6.1 °F 71% 30.29 in 10.0 mi WNW 10.4 mph - N/A   Scattered Clouds
12:12 PM 14.0 °F 2.0 °F 6.8 °F 73% 30.06 in 10.0 mi West 9.2 mph - N/A   Mostly Cloudy
12:24 PM 14.0 °F 2.9 °F 6.8 °F 73% 30.05 in 10.0 mi West 8.1 mph - N/A   Scattered Clouds
12:32 PM 14.0 °F 1.2 °F 6.8 °F 73% 30.05 in 10.0 mi West 10.4 mph - N/A   Mostly Cloudy
12:53 PM 14.0 °F 2.9 °F 5.0 °F 67% 30.27 in 10.0 mi NW 8.1 mph - N/A   Mostly Cloudy
1:53 PM 14.0 °F 2.9 °F 3.9 °F 64% 30.28 in 10.0 mi NNW 8.1 mph - N/A   Overcast
2:53 PM 14.0 °F 0.5 °F 3.0 °F 62% 30.29 in 10.0 mi NW 11.5 mph - N/A   Overcast
3:53 PM 12.0 °F 1.5 °F 1.9 °F 64% 30.31 in 10.0 mi NNW 6.9 mph - N/A   Overcast
4:53 PM 9.0 °F -3.2 °F 1.0 °F 70% 30.32 in 10.0 mi WNW 8.1 mph - N/A   Overcast
5:02 PM 8.6 °F -4.7 °F -0.4 °F 67% 30.09 in 10.0 mi WNW 9.2 mph - N/A   Mostly Cloudy
5:53 PM -0.9 °F -12.7 °F -5.1 °F 83% 30.36 in 10.0 mi WNW 5.8 mph - N/A   Clear
6:53 PM -5.1 °F -19.1 °F -9.0 °F 83% 30.39 in 10.0 mi West 6.9 mph - N/A   Clear
7:53 PM -2.0 °F -17.7 °F -7.1 °F 79% 30.39 in 10.0 mi West 9.2 mph - N/A   Mostly Cloudy
8:53 PM -5.1 °F -19.1 °F -9.0 °F 83% 30.40 in 10.0 mi West 6.9 mph - N/A   Clear
9:53 PM -6.0 °F -18.6 °F -11.0 °F 79% 30.41 in 10.0 mi West 5.8 mph - N/A   Clear
10:53 PM -2.2 °F -16.8 °F -7.6 °F 78% 30.13 in 10.0 mi WNW 8.1 mph - N/A   Clear
11:53 PM -11.0 °F -29.9 °F -15.0 °F 83% 30.39 in 10.0 mi West 10.4 mph - N/A   Clear